RYR71QD LIBD-LZIB

Flight info

Callsign RYR71QD
Flight time 1h 9m
Altitude 39000
Route BANAV DCT AIOSA DCT RUDIK DCT INSAX DCT NIGSI DCT BEGLA DCT KUVEX
Aircraft B738/M-SDE2E3FGHIRWXY/LB1

Departure

Time 2026-05-04 07:04
Airport Bari Karol Wojtyła International Airport (LIBD)

Arrival

Time 2026-05-04 08:13
Airport M. R. Štefánik Airport (LZIB)
Time Latitude Longitude Altitude Speed Heading
2026-05-04 06:57 41.13503 16.76234 153 ft 0 kts 159°
2026-05-04 06:59 41.13517 16.76227 153 ft 3 kts 159°
2026-05-04 06:59 41.13534 16.76218 152 ft 2 kts 159°
2026-05-04 06:59 41.13550 16.76208 152 ft 3 kts 134°
2026-05-04 06:59 41.13557 16.76190 153 ft 3 kts 85°
2026-05-04 07:01 41.13552 16.76163 153 ft 0 kts 69°
2026-05-04 07:02 41.13556 16.76176 153 ft 9 kts 69°
2026-05-04 07:02 41.13607 16.76348 148 ft 31 kts 68°
2026-05-04 07:02 41.13779 16.76555 138 ft 26 kts 33°
2026-05-04 07:03 41.13867 16.76763 130 ft 26 kts 61°
2026-05-04 07:03 41.13972 16.76738 133 ft 19 kts 291°
2026-05-04 07:03 41.13985 16.76524 136 ft 29 kts 250°
2026-05-04 07:03 41.13803 16.75890 158 ft 118 kts 249°
2026-05-04 07:04 41.13436 16.74593 424 ft 171 kts 249°
2026-05-04 07:04 41.12962 16.73027 1176 ft 201 kts 246°
2026-05-04 07:04 41.12381 16.71183 1954 ft 221 kts 249°
2026-05-04 07:04 41.11853 16.69261 2788 ft 223 kts 251°
2026-05-04 07:05 41.11334 16.67323 3608 ft 228 kts 250°
2026-05-04 07:05 41.10815 16.65428 4485 ft 230 kts 251°
2026-05-04 07:05 41.10258 16.63431 5343 ft 233 kts 251°
2026-05-04 07:05 41.09991 16.61330 6108 ft 237 kts 282°
2026-05-04 07:06 41.12302 16.58155 7148 ft 267 kts 346°
2026-05-04 07:06 41.14159 16.58087 8014 ft 272 kts 11°
2026-05-04 07:06 41.15858 16.59200 8856 ft 280 kts 40°
2026-05-04 07:07 41.17031 16.61276 9756 ft 284 kts 57°
2026-05-04 07:08 41.25563 16.79516 13714 ft 359 kts 38°
2026-05-04 07:09 41.27631 16.81384 14440 ft 360 kts 27°
2026-05-04 07:09 41.29955 16.82653 15136 ft 363 kts 18°
2026-05-04 07:09 41.32353 16.83737 15855 ft 365 kts 18°
2026-05-04 07:09 41.34766 16.84846 16510 ft 369 kts 19°
2026-05-04 07:10 41.37200 16.85992 17160 ft 372 kts 19°
2026-05-04 07:10 41.39640 16.87156 17789 ft 375 kts 19°
2026-05-04 07:12 41.57412 16.95323 21697 ft 396 kts 14°
2026-05-04 07:12 41.60075 16.96295 22188 ft 399 kts 14°
2026-05-04 07:12 41.62759 16.97279 22674 ft 401 kts 14°
2026-05-04 07:12 41.65466 16.98294 23123 ft 405 kts 14°
2026-05-04 07:13 41.68185 16.99327 23583 ft 407 kts 14°
2026-05-04 07:13 41.70884 17.00518 24026 ft 411 kts 21°
2026-05-04 07:13 41.73447 17.02246 24459 ft 416 kts 28°
2026-05-04 07:14 41.82443 17.12443 26013 ft 430 kts 38°
2026-05-04 07:14 41.84679 17.15131 26385 ft 432 kts 38°
2026-05-04 07:15 41.86928 17.17811 26747 ft 434 kts 38°
2026-05-04 07:15 41.89075 17.20341 27060 ft 435 kts 35°
2026-05-04 07:15 41.91790 17.22472 27384 ft 428 kts 17°
2026-05-04 07:15 41.94618 17.23435 27769 ft 424 kts
2026-05-04 07:16 41.97545 17.23507 28100 ft 422 kts 352°
2026-05-04 07:16 42.00426 17.22789 28406 ft 422 kts 347°
2026-05-04 07:16 42.03309 17.21930 28652 ft 426 kts 347°
2026-05-04 07:16 42.06212 17.21031 28898 ft 428 kts 346°
2026-05-04 07:17 42.09109 17.20132 29341 ft 426 kts 346°
2026-05-04 07:17 42.11978 17.19254 29891 ft 421 kts 346°
2026-05-04 07:17 42.14824 17.18394 30398 ft 417 kts 347°
2026-05-04 07:17 42.17651 17.17550 30715 ft 418 kts 347°
2026-05-04 07:18 42.20467 17.16716 30975 ft 420 kts 347°
2026-05-04 07:18 42.23350 17.15865 31330 ft 419 kts 347°
2026-05-04 07:18 42.26157 17.15037 31720 ft 417 kts 347°
2026-05-04 07:18 42.28985 17.14202 32071 ft 416 kts 347°
2026-05-04 07:19 42.31813 17.13367 32329 ft 417 kts 346°
2026-05-04 07:19 42.34643 17.12531 32602 ft 417 kts 346°
2026-05-04 07:19 42.37476 17.11693 32945 ft 416 kts 346°
2026-05-04 07:19 42.40293 17.10860 33292 ft 414 kts 346°
2026-05-04 07:20 42.43111 17.10025 33570 ft 414 kts 346°
2026-05-04 07:20 42.45930 17.09189 33808 ft 415 kts 346°
2026-05-04 07:20 42.48745 17.08353 34107 ft 414 kts 346°
2026-05-04 07:20 42.51557 17.07517 34423 ft 413 kts 346°
2026-05-04 07:22 42.71770 17.07120 36013 ft 419 kts
2026-05-04 07:22 42.74673 17.07312 36276 ft 418 kts
2026-05-04 07:23 42.77581 17.07499 36428 ft 420 kts
2026-05-04 07:23 42.80506 17.07685 36571 ft 421 kts 360°
2026-05-04 07:23 42.83436 17.07869 36795 ft 420 kts 360°
2026-05-04 07:23 42.86336 17.08052 37139 ft 417 kts
2026-05-04 07:24 42.92173 17.08417 37167 ft 422 kts
2026-05-04 07:24 42.98065 17.08786 37166 ft 424 kts
2026-05-04 07:26 43.21541 17.10272 37173 ft 423 kts
2026-05-04 07:27 43.27422 17.10646 37181 ft 423 kts
2026-05-04 07:27 43.33308 17.11021 37178 ft 424 kts
2026-05-04 07:28 43.39198 17.11396 37176 ft 424 kts
2026-05-04 07:28 43.45092 17.11774 37169 ft 424 kts
2026-05-04 07:29 43.50985 17.12152 37170 ft 424 kts
2026-05-04 07:29 43.56872 17.12530 37179 ft 424 kts
2026-05-04 07:30 43.62765 17.12910 37177 ft 424 kts
2026-05-04 07:30 43.68660 17.13289 37180 ft 424 kts
2026-05-04 07:31 43.74536 17.13663 37176 ft 423 kts
2026-05-04 07:33 43.97088 17.14854 37167 ft 424 kts
2026-05-04 07:33 44.02986 17.15166 37161 ft 424 kts
2026-05-04 07:34 44.08880 17.15478 37158 ft 424 kts
2026-05-04 07:34 44.14786 17.15793 37165 ft 425 kts
2026-05-04 07:35 44.20700 17.16110 37165 ft 425 kts
2026-05-04 07:35 44.26621 17.16427 37159 ft 426 kts
2026-05-04 07:36 44.32541 17.16744 37163 ft 426 kts
2026-05-04 07:38 44.56235 17.18020 37154 ft 427 kts
2026-05-04 07:38 44.62176 17.18343 37160 ft 427 kts
2026-05-04 07:39 44.68110 17.18664 37161 ft 427 kts
2026-05-04 07:39 44.74052 17.18986 37153 ft 427 kts
2026-05-04 07:40 44.79996 17.19310 37152 ft 427 kts
2026-05-04 07:40 44.85945 17.19635 37159 ft 427 kts
2026-05-04 07:41 44.91890 17.19959 37157 ft 428 kts
2026-05-04 07:41 44.97844 17.20285 37157 ft 428 kts
2026-05-04 07:42 45.03799 17.20613 37155 ft 429 kts
2026-05-04 07:42 45.09764 17.20941 37159 ft 429 kts
2026-05-04 07:43 45.15725 17.21269 37157 ft 429 kts
2026-05-04 07:43 45.21692 17.21599 37157 ft 430 kts
2026-05-04 07:44 45.27673 17.21932 37156 ft 430 kts
2026-05-04 07:44 45.33647 17.22262 37160 ft 430 kts
2026-05-04 07:45 45.39632 17.22594 37154 ft 430 kts
2026-05-04 07:45 45.45616 17.22928 37158 ft 431 kts
2026-05-04 07:46 45.51607 17.23264 37152 ft 431 kts
2026-05-04 07:46 45.57601 17.23600 37158 ft 431 kts
2026-05-04 07:47 45.63594 17.23935 37156 ft 431 kts
2026-05-04 07:49 45.87547 17.25286 37152 ft 431 kts
2026-05-04 07:49 45.93547 17.25626 37146 ft 431 kts
2026-05-04 07:50 45.99540 17.25967 37146 ft 431 kts
2026-05-04 07:50 46.05543 17.26307 37139 ft 432 kts
2026-05-04 07:51 46.11546 17.26650 37141 ft 432 kts
2026-05-04 07:51 46.17556 17.26994 37139 ft 432 kts
2026-05-04 07:52 46.23515 17.27337 37130 ft 426 kts
2026-05-04 07:52 46.29432 17.27676 36885 ft 428 kts
2026-05-04 07:53 46.32415 17.27847 36377 ft 428 kts
2026-05-04 07:54 46.53443 17.29059 31350 ft 438 kts
2026-05-04 07:55 46.56496 17.29236 30539 ft 440 kts
2026-05-04 07:55 46.59560 17.29413 29690 ft 442 kts
2026-05-04 07:55 46.62633 17.29591 28779 ft 444 kts
2026-05-04 07:55 46.65729 17.29770 27847 ft 446 kts
2026-05-04 07:56 46.68829 17.29950 27117 ft 443 kts
2026-05-04 07:56 46.71899 17.30129 26432 ft 439 kts
2026-05-04 07:56 46.74938 17.30306 25759 ft 435 kts
2026-05-04 07:56 46.77918 17.30480 25106 ft 432 kts
2026-05-04 07:57 46.80943 17.30658 24432 ft 428 kts
2026-05-04 07:57 46.83855 17.30829 23782 ft 424 kts
2026-05-04 07:57 46.86832 17.31004 23130 ft 421 kts
2026-05-04 07:57 46.89751 17.31176 22470 ft 418 kts
2026-05-04 07:58 46.92647 17.31345 21826 ft 415 kts
2026-05-04 07:58 46.95523 17.31514 21170 ft 412 kts
2026-05-04 07:58 46.98374 17.31682 20540 ft 409 kts
2026-05-04 07:58 47.01178 17.31847 19909 ft 407 kts
2026-05-04 07:59 47.04000 17.32014 19268 ft 404 kts
2026-05-04 07:59 47.06795 17.32179 18635 ft 401 kts
2026-05-04 07:59 47.09577 17.32343 17998 ft 399 kts
2026-05-04 07:59 47.12341 17.32506 17366 ft 397 kts
2026-05-04 08:00 47.15098 17.32669 16735 ft 394 kts
2026-05-04 08:00 47.17828 17.32831 16103 ft 392 kts
2026-05-04 08:00 47.20548 17.32992 15466 ft 390 kts
2026-05-04 08:02 47.39236 17.34107 11119 ft 375 kts
2026-05-04 08:02 47.41796 17.34261 10904 ft 363 kts
2026-05-04 08:02 47.44275 17.34410 10744 ft 350 kts
2026-05-04 08:03 47.46675 17.34554 10591 ft 339 kts
2026-05-04 08:03 47.48990 17.34694 10447 ft 328 kts
2026-05-04 08:03 47.51240 17.34832 10299 ft 319 kts
2026-05-04 08:03 47.53424 17.34964 10161 ft 310 kts
2026-05-04 08:04 47.55544 17.35093 10036 ft 301 kts
2026-05-04 08:04 47.57621 17.35219 9773 ft 298 kts
2026-05-04 08:04 47.59658 17.35344 9483 ft 297 kts
2026-05-04 08:04 47.61717 17.35468 9164 ft 296 kts
2026-05-04 08:05 47.63772 17.35594 8863 ft 296 kts
2026-05-04 08:05 47.65840 17.35720 8500 ft 297 kts
2026-05-04 08:05 47.67897 17.35841 8193 ft 296 kts
2026-05-04 08:05 47.69962 17.35968 7872 ft 297 kts
2026-05-04 08:06 47.72029 17.36093 7538 ft 297 kts
2026-05-04 08:06 47.74097 17.36217 7182 ft 298 kts
2026-05-04 08:06 47.76170 17.36344 6850 ft 299 kts
2026-05-04 08:06 47.78258 17.36470 6501 ft 300 kts
2026-05-04 08:08 47.92362 17.37327 4489 ft 280 kts
2026-05-04 08:08 47.94315 17.37455 4247 ft 282 kts
2026-05-04 08:10 48.08485 17.34986 2527 ft 239 kts 301°
2026-05-04 08:11 48.09475 17.33075 2243 ft 226 kts 312°
2026-05-04 08:11 48.10921 17.30783 1824 ft 207 kts 313°
2026-05-04 08:11 48.11881 17.29281 1560 ft 192 kts 314°
2026-05-04 08:12 48.12747 17.27912 1377 ft 171 kts 314°
2026-05-04 08:12 48.13542 17.26691 1141 ft 154 kts 315°
2026-05-04 08:12 48.14253 17.25578 905 ft 142 kts 315°
2026-05-04 08:12 48.14933 17.24516 745 ft 141 kts 315°
2026-05-04 08:13 48.15622 17.23440 552 ft 144 kts 315°
2026-05-04 08:13 48.16297 17.22383 438 ft 131 kts 314°
2026-05-04 08:13 48.16820 17.21562 438 ft 87 kts 314°
2026-05-04 08:13 48.17059 17.21189 440 ft 21 kts 314°
2026-05-04 08:14 48.17118 17.21024 439 ft 18 kts 251°
2026-05-04 08:14 48.17032 17.20869 441 ft 23 kts 227°
2026-05-04 08:14 48.16923 17.20694 442 ft 23 kts 226°